{"data":{"norad_id":59742,"intl_designator":"2024-090N","name":"STARLINK-31816","alt_names":[],"object_type":"PAYLOAD","status":"ACTIVE","operator":null,"country":"US","launch_date":"2024-05-13","launch_site_code":"AFETR","launch_vehicle":null,"mission":null,"orbit_class":"UNKNOWN","rcs_meters":null,"size_class":null,"mass_kg":null,"dimensions":null,"purposes":["comms"],"wikipedia_slug":null,"has_3d_model":false,"image_url":null,"decayed_at":null,"tle_current":{"epoch":"2026-09-21T02:49:46.797600Z","epoch_age_seconds":118002,"freshness":"FRESH","line1":"1 59742U 24090N   26264.11790275  .00006719  00000+0  25374-3 0  9990","line2":"2 59742  43.0041 160.1997 0001628 251.4798 108.5877 15.27544911133302","mean_motion":15.27544911,"eccentricity":0.0001628,"inclination_deg":43.0041,"raan_deg":160.1997,"arg_perigee_deg":251.4798,"mean_anomaly_deg":108.5877,"bstar":0.00025374,"rev_number":13330,"period_min":94.268914100687,"perigee_km":482.03714893811,"apogee_km":484.27118534213,"semimajor_km":6861.2911671401,"source":"CELESTRAK","updated_at":"2026-09-22T09:00:49.064158Z"}}}